[[{"header":{"parameterUnit":"m.s-1","parameterCategory":1,"la1":30.2991,"la2":30.254,"lo1":-89.0895,"lo2":-89.0444,"dy":0.0017,"dx":0.0017,"nx":28,"ny":28,"refTime":"2023-10-15T21:00:00:Z","depth":0,"parameterNumber":2,"parameterNumberName":"U-component_of_WINDS"},"data":[0,0,0,0,0,0,0,0,0,0,0,0,0,0,0,0,0,0,0,0,0,0,0,0,0,0,0,0,0,0,0,0,0,0,0,0,0,0,0,0,0,0,0,0,0,0,0,0,0,0,0,0,0,0,0,0,0,0,1.1718,1.1717,0,1.1635,1.1634,1.1633,1.1623,1.1624,1.1625,1.1626,1.1535,1.1531,1.1528,0,0,0,0,0,0,0,0,0,0,0,0,0,1.1863,1.186,1.1718,1.1717,1.1716,1.1635,1.1634,1.1633,1.1623,1.1624,1.1625,1.1626,1.1536,1.1532,1.1528,0,0,0,0,0,0,0,0,0,0,0,0,0,1.1792,1.1859,1.1718,1.1702,1.1699,1.1635,1.1634,1.1633,1.1623,1.1624,1.1625,1.1627,1.1537,1.1532,1.1527,1.1473,0,0,1.1513,1.1511,0,0,0,0,0,0,0,0,1.1796,1.1786,1.1705,1.1703,1.17,1.1641,1.1652,1.1579,1.1623,1.1652,1.1626,1.1627,1.1569,1.1561,1.1543,1.1468,1.1464,1.1512,1.1509,1.1507,1.1506,0,0,0,0,0,0,0,1.1801,1.179,1.1685,1.1704,1.1701,1.1696,1.1688,1.1638,1.1604,1.1649,1.1648,1.1639,1.1567,1.1547,1.154,1.1463,1.1512,1.1508,1.1505,1.1503,1.1338,1.1336,0,0,0,0,0,0,1.181,1.1794,1.1688,1.1683,1.1752,1.1693,1.1683,1.1659,1.1605,1.1598,1.1638,1.1639,1.1555,1.1546,1.1537,1.1468,1.1507,1.1503,1.15,1.1339,1.1337,1.1336,0,0,0,0,0,0,1.1813,1.18,1.1691,1.1738,1.1724,1.1689,1.1662,1.1656,1.1636,1.1596,1.1589,1.1624,1.1556,1.1544,1.1489,1.1464,1.1501,1.1496,1.1341,1.1339,1.1337,1.1329,0,0,0,0,0,0,1.1817,1.1801,1.1781,1.1738,1.1722,1.1646,1.166,1.1654,1.1629,1.1629,1.1581,1.1574,1.1556,1.1496,1.1484,1.1458,1.1493,1.1343,1.134,1.1337,1.1331,1.1327,1.1323,0,0,0,0,0,1.1822,1.1782,1.1781,1.1768,1.1696,1.1644,1.1635,1.1616,1.1627,1.1605,1.158,1.1576,1.147,1.149,1.1477,1.1449,1.1344,1.1341,1.1338,1.1333,1.1328,1.1323,0,0,0,0,0,0,1.1821,1.1776,1.1774,1.1719,1.1686,1.1643,1.1615,1.1611,1.1572,1.1574,1.155,1.154,1.1485,1.1462,1.1486,1.1393,1.1408,1.1402,1.1409,1.1404,1.14,1.1405,1.1489,0,0,0,0,0,1.1815,1.1779,1.174,1.1695,1.1679,1.165,1.1627,1.1615,1.1579,1.1565,1.1535,1.1498,1.1457,1.1429,1.1389,1.1329,1.1317,1.1304,1.13,1.1296,1.129,1.1255,1.1247,1.1325,1.1325,1.1325,0,0,1.1801,1.1772,1.175,1.1694,1.1667,1.1628,1.1638,1.1597,1.1566,1.1558,1.1503,1.1481,1.1438,1.138,1.1353,1.1359,1.1267,1.1292,1.129,1.1285,1.125,1.1243,1.1237,1.1322,1.1323,1.1323,0,0,1.1755,1.173,1.1689,1.1662,1.1622,1.1604,1.1594,1.1552,1.1537,1.1483,1.1475,1.1438,1.1367,1.1337,1.1312,1.1256,1.125,1.1243,1.122,1.1186,1.118,1.1174,1.1151,1.1144,1.1238,1.1238,1.1238,0,1.1741,1.1684,1.1668,1.1626,1.1601,1.1594,1.1551,1.1525,1.1473,1.1455,1.1464,1.1374,1.1345,1.1279,1.1265,1.1247,1.1232,1.1247,1.1183,1.1177,1.1171,1.1149,1.1141,1.1237,1.1237,1.1237,1.1237,0,1.1668,1.1629,1.16,1.1552,1.1523,1.1481,1.1457,1.143,1.1421,1.1401,1.1345,1.1311,1.1263,1.1247,1.1237,1.1178,1.1183,1.1188,1.1202,1.1163,1.1142,1.1133,1.1236,1.1236,1.1236,1.1237,0,0,1.1617,1.1562,1.1551,1.1528,1.1484,1.1452,1.1409,1.1363,1.134,1.1305,1.1266,1.1207,1.121,1.1182,1.117,1.114,1.1094,1.1148,1.1146,1.1136,1.1024,1.1019,1.101,1.1092,1.109,1.1089,1.1027,0,1.1563,1.1488,1.1473,1.1406,1.1368,1.1361,1.1323,1.1291,1.1271,1.1234,1.1212,1.1169,1.1179,1.1162,1.1132,1.1106,1.1071,1.1111,1.1052,1.105,1.106,1.0999,1.0993,1.0936,1.1019,1.1017,1.1016,0,1.149,1.1455,1.1385,1.1345,1.1328,1.1295,1.1252,1.1218,1.118,1.1168,1.1137,1.1127,1.108,1.1099,1.1033,1.106,1.1036,1.1019,1.1016,1.1007,1.1029,1.0985,1.0918,1.0908,1.1004,1.1005,1.1006,0,1.1456,1.1391,1.1341,1.1322,1.1275,1.1251,1.123,1.1194,1.1168,1.113,1.1112,1.1068,1.1043,1.1009,1.0987,1.1004,1.0921,1.0939,1.0907,1.0907,1.0887,1.0888,1.0812,1.0877,1.0877,1.0877,1.0877,0,1.1396,1.1353,1.1324,1.1293,1.1244,1.1227,1.1178,1.1157,1.1125,1.1088,1.108,1.1044,1.102,1.098,1.0963,1.0909,1.0898,1.0885,1.088,1.0884,1.0885,1.0865,1.0867,1.0875,1.0875,1.0876,1.0876,0,1.1348,1.1328,1.1272,1.1233,1.1222,1.1187,1.1152,1.112,1.1102,1.1054,1.1042,1.1011,1.0965,1.0941,1.0882,1.0871,1.0809,1.0808,1.0821,1.0819,1.0787,1.0789,1.0692,1.0677,1.0756,1.0755,1.0754,0,1.1309,1.1276,1.1234,1.1209,1.1188,1.1149,1.1122,1.1104,1.1076,1.1031,1.1004,1.0958,1.0919,1.0844,1.0815,1.077,1.0766,1.0736,1.0759,1.0763,1.0762,1.0763,1.0758,1.073,1.0729,1.0729,1.0728,0,1.1242,1.1234,1.1197,1.1155,1.1124,1.1091,1.1058,1.1037,1.1013,1.0982,1.0936,1.0906,1.0847,1.08,1.0753,1.0729,1.0723,1.0722,1.0711,1.0713,1.0721,1.0713,1.0807,1.0723,1.0724,1.0724,1.0724,1.0725,1.1195,1.1165,1.113,1.1088,1.1062,1.1031,1.0999,1.0977,1.0938,1.089,1.0881,1.0831,1.0793,1.073,1.0705,1.0664,1.067,1.0655,1.0651,1.0647,1.0644,1.0731,1.0656,1.0656,1.0656,1.0656,1.0656,0,1.1124,1.1102,1.1065,1.1019,1.0986,1.0987,1.095,1.0922,1.0878,1.0845,1.0808,1.0753,1.0708,1.0676,1.0629,1.0602,1.0598,1.059,1.059,1.0584,1.0643,1.0655,1.0594,1.0594,1.0594,1.0594,1.0594,1.0594,1.1083,1.1031,1.1019,1.0953,1.0931,1.0883,1.0861,1.0832,1.0805,1.0745,1.0708,1.0689,1.0655,1.0606,1.0564,1.0555,1.0537,1.0528,1.0519,1.0574,1.058,1.0586,1.0597,1.0525,1.0525,1.0463,1.0463,1.0462]},{"header":{"parameterUnit":"m.s-1","parameterCategory":1,"la1":30.2991,"la2":30.254,"lo1":-89.0895,"lo2":-89.0444,"dy":0.0017,"dx":0.0017,"nx":28,"ny":28,"refTime":"2023-10-15T21:00:00:Z","depth":0,"parameterNumber":3,"parameterNumberName":"V-component_of_WINDS"},"data":[0,0,0,0,0,0,0,0,0,0,0,0,0,0,0,0,0,0,0,0,0,0,0,0,0,0,0,0,0,0,0,0,0,0,0,0,0,0,0,0,0,0,0,0,0,0,0,0,0,0,0,0,0,0,0,0,0,0,-4.4492,-4.4494,0,-4.4678,-4.4681,-4.4683,-4.4616,-4.4612,-4.4608,-4.4604,-4.479,-4.4799,-4.4808,0,0,0,0,0,0,0,0,0,0,0,0,0,-4.4073,-4.4081,-4.4492,-4.4494,-4.4496,-4.4678,-4.4681,-4.4683,-4.4617,-4.4612,-4.4606,-4.4602,-4.4788,-4.4798,-4.4809,0,0,0,0,0,0,0,0,0,0,0,0,0,-4.4257,-4.4084,-4.4491,-4.4485,-4.4486,-4.4678,-4.4681,-4.4684,-4.4618,-4.4611,-4.4605,-4.4599,-4.4784,-4.4797,-4.481,-4.5017,0,0,-4.4851,-4.4856,0,0,0,0,0,0,0,0,-4.4247,-4.4272,-4.4484,-4.4486,-4.4488,-4.4618,-4.4602,-4.4795,-4.4619,-4.4568,-4.4603,-4.4596,-4.4738,-4.4754,-4.4803,-4.5026,-4.5034,-4.4852,-4.486,-4.4866,-4.4869,0,0,0,0,0,0,0,-4.4234,-4.4264,-4.4565,-4.4487,-4.4489,-4.4472,-4.4491,-4.4638,-4.4685,-4.4572,-4.4567,-4.4591,-4.4738,-4.479,-4.4807,-4.5037,-4.4852,-4.4863,-4.4872,-4.4877,-4.5439,-4.5446,0,0,0,0,0,0,-4.4221,-4.4254,-4.4559,-4.4571,-4.435,-4.4484,-4.4506,-4.4582,-4.4684,-4.4693,-4.4596,-4.4587,-4.4771,-4.4791,-4.4813,-4.5063,-4.4866,-4.4878,-4.4886,-4.5432,-4.544,-4.5448,0,0,0,0,0,0,-4.4212,-4.4249,-4.4552,-4.4411,-4.4449,-4.4498,-4.4584,-4.4589,-4.4642,-4.4702,-4.4709,-4.4641,-4.4767,-4.4794,-4.4967,-4.5069,-4.4884,-4.4896,-4.5424,-4.5435,-4.5444,-4.5564,0,0,0,0,0,0,-4.4201,-4.4246,-4.4326,-4.4414,-4.4456,-4.4705,-4.4591,-4.4597,-4.4666,-4.4656,-4.4747,-4.4756,-4.4764,-4.4948,-4.4981,-4.5084,-4.4906,-4.5415,-4.5429,-4.5441,-4.5552,-4.5578,-4.56,0,0,0,0,0,-4.4186,-4.4352,-4.4331,-4.4368,-4.4558,-4.4711,-4.4735,-4.4742,-4.4674,-4.4755,-4.4793,-4.4753,-4.5052,-4.4966,-4.5002,-4.5111,-4.5409,-4.5425,-4.544,-4.5541,-4.5572,-4.5599,0,0,0,0,0,0,-4.4273,-4.4363,-4.4341,-4.454,-4.4619,-4.4699,-4.4801,-4.4776,-4.4874,-4.486,-4.4864,-4.4885,-4.5063,-4.5104,-4.5007,-4.5317,-4.522,-4.5244,-4.5284,-4.5315,-4.5338,-4.5325,-4.4917,0,0,0,0,0,-4.4316,-4.4434,-4.4505,-4.4674,-4.4715,-4.4751,-4.4818,-4.4817,-4.4898,-4.493,-4.4981,-4.506,-4.5171,-4.5245,-4.5351,-4.5556,-4.5575,-4.5649,-4.5673,-4.5692,-4.5713,-4.5825,-4.5859,-4.5499,-4.5499,-4.5499,0,0,-4.4405,-4.4469,-4.4543,-4.4693,-4.4754,-4.4875,-4.478,-4.4911,-4.5001,-4.4949,-4.5117,-4.5157,-4.5245,-4.5435,-4.5521,-4.5475,-4.5817,-4.5712,-4.5728,-4.5738,-4.5845,-4.5879,-4.5909,-4.551,-4.5508,-4.5506,0,0,-4.463,-4.469,-4.4838,-4.4901,-4.4994,-4.5017,-4.5053,-4.5138,-4.5163,-4.5331,-4.5295,-4.5401,-4.5593,-4.5657,-4.5715,-4.5964,-4.5931,-4.5998,-4.6125,-4.6235,-4.6263,-4.6288,-4.6378,-4.641,-4.6019,-4.6019,-4.6019,0,-4.4729,-4.4911,-4.4916,-4.5052,-4.512,-4.508,-4.5229,-4.5289,-4.5412,-4.5459,-4.5404,-4.5646,-4.5702,-4.5907,-4.5968,-4.6016,-4.6056,-4.5989,-4.6259,-4.6284,-4.6307,-4.6393,-4.6427,-4.6027,-4.6026,-4.6025,-4.6024,0,-4.5028,-4.5155,-4.5263,-4.5385,-4.5464,-4.5606,-4.5631,-4.571,-4.5702,-4.5731,-4.5902,-4.5968,-4.6087,-4.6135,-4.6128,-4.634,-4.6308,-4.6257,-4.616,-4.6349,-4.643,-4.6463,-4.6038,-4.6035,-4.6033,-4.6031,0,0,-4.5315,-4.5438,-4.5477,-4.5532,-4.5632,-4.573,-4.5869,-4.5987,-4.6056,-4.6141,-4.6258,-4.6421,-4.6375,-4.644,-4.6439,-4.6535,-4.673,-4.6472,-4.6474,-4.6518,-4.6968,-4.7008,-4.7046,-4.6708,-4.6714,-4.6719,-4.6961,0,-4.5549,-4.5796,-4.5804,-4.6029,-4.6147,-4.611,-4.6231,-4.6305,-4.6336,-4.6438,-4.647,-4.6587,-4.6516,-4.6555,-4.6648,-4.6686,-4.682,-4.6669,-4.6816,-4.6821,-4.6797,-4.7088,-4.713,-4.7356,-4.6993,-4.6998,-4.7002,0,-4.5855,-4.5952,-4.619,-4.6274,-4.6323,-4.6432,-4.6541,-4.664,-4.6723,-4.6738,-4.6812,-4.6797,-4.6938,-4.6836,-4.703,-4.6927,-4.6987,-4.7015,-4.7024,-4.7039,-4.6924,-4.7112,-4.7428,-4.7462,-4.7051,-4.7047,-4.7044,0,-4.6042,-4.6232,-4.6399,-4.6446,-4.6548,-4.6626,-4.6671,-4.6748,-4.6818,-4.6913,-4.6958,-4.7067,-4.7127,-4.7212,-4.7226,-4.715,-4.7422,-4.732,-4.7438,-4.7438,-4.7498,-4.7495,-4.783,-4.7535,-4.7534,-4.7534,-4.7533,0,-4.6303,-4.645,-4.6484,-4.6587,-4.675,-4.6758,-4.6918,-4.6958,-4.7026,-4.7135,-4.7109,-4.7211,-4.7224,-4.7329,-4.7341,-4.7501,-4.7528,-4.7543,-4.7545,-4.7547,-4.7546,-4.7588,-4.7573,-4.7543,-4.7541,-4.7539,-4.7537,0,-4.654,-4.6569,-4.6749,-4.683,-4.6854,-4.6971,-4.704,-4.7138,-4.7165,-4.7303,-4.7336,-4.7378,-4.7501,-4.7524,-4.7668,-4.7676,-4.7867,-4.7852,-4.784,-4.7839,-4.7957,-4.7946,-4.8332,-4.8383,-4.8053,-4.8057,-4.8059,0,-4.6706,-4.6819,-4.6913,-4.6985,-4.7035,-4.7151,-4.7223,-4.7234,-4.731,-4.7412,-4.7498,-4.7618,-4.7716,-4.7913,-4.7956,-4.8066,-4.8055,-4.8182,-4.8071,-4.807,-4.8058,-4.8052,-4.8064,-4.8204,-4.8208,-4.821,-4.8213,0,-4.6998,-4.7007,-4.7113,-4.7224,-4.7312,-4.74,-4.7483,-4.7542,-4.7564,-4.7651,-4.7777,-4.7853,-4.8001,-4.8121,-4.8231,-4.8275,-4.8249,-4.8247,-4.8281,-4.8285,-4.8274,-4.8283,-4.79,-4.8239,-4.8236,-4.8234,-4.8233,-4.8232,-4.7206,-4.7304,-4.7386,-4.7505,-4.7569,-4.7648,-4.7744,-4.7784,-4.789,-4.8013,-4.8012,-4.815,-4.8229,-4.8374,-4.8427,-4.8534,-4.8493,-4.8541,-4.8554,-4.8566,-4.8578,-4.8256,-4.8554,-4.8553,-4.8552,-4.8552,-4.8551,0,-4.7497,-4.7548,-4.7658,-4.7776,-4.787,-4.7836,-4.7927,-4.8007,-4.813,-4.8206,-4.8303,-4.8448,-4.8564,-4.8616,-4.873,-4.8806,-4.8797,-4.8836,-4.8831,-4.8842,-4.8607,-4.8568,-4.8842,-4.8842,-4.8842,-4.8842,-4.8841,-4.8841,-4.7661,-4.7826,-4.7845,-4.8041,-4.809,-4.8228,-4.8282,-4.8354,-4.8415,-4.8579,-4.8676,-4.871,-4.8776,-4.8895,-4.9,-4.9012,-4.9056,-4.9101,-4.9108,-4.8888,-4.8858,-4.883,-4.8794,-4.911,-4.9111,-4.9334,-4.9336,-4.9338]}]]